**Search for your results by entering your last name OR bib number OR search by age group to compare your stats with others
Individual Search
 
Bib:
Last Name:
All Participants Search
 
Top Ten Women
PlaceNameTimePace
1.Becky Boyle1:22:326:18/M
2.Katherine McClain1:25:156:30/M
3.Meghan Shagena1:25:456:33/M
4.Kimberly Coleman1:29:116:48/M
5.April Woo1:29:336:50/M
6.Courtney Freiberger1:30:266:54/M
7.Sheri Kiser1:30:316:55/M
8.Angela Yochum1:31:016:57/M
9.Christine Case1:32:577:06/M
10.Lynn Riedling1:33:157:07/M
Top Ten Men
PlaceNameTimePace
1.Michael Eaton1:12:595:34/M
2.Scott Breeden1:13:025:35/M
3.Bart Borghuis1:13:085:35/M
4.Josh Heird1:13:525:38/M
5.Kyle Hall1:15:215:45/M
6.Mark Paulson1:15:555:48/M
7.Daryl Parks1:16:335:51/M
8.Braden Robbins1:16:495:52/M
9.Jeremy Burtel1:17:495:56/M
10.Kyle Bowling1:17:525:57/M
Contact us for results help

Gallery of Events

Contact Us

Address:
172 Trademark Drive
Buda, Texas 78610

Phone:
(512) 386 - 7966

Email:
info@cadencesports.com